This is the latest recevied weather packets stored in our database for station/object DB2AG-10. If no packets are shown the sender has not sent any weather packets the latest 10 day(s).
| Time | Temp. | Humidity | Pressure | Rain* | Wind** | Luminosity | Snow |
|---|---|---|---|---|---|---|---|
| 1777558609 | 20° C | 31% | 1030.8 hPa | - | - | - | - |
| 1777557709 | 20° C | 32% | 1030.9 hPa | - | - | - | - |
| 1777556809 | 20° C | 32% | 1031 hPa | - | - | - | - |
| 1777555909 | 20° C | 32% | 1031 hPa | - | - | - | - |
| 1777555009 | 20° C | 32% | 1031.2 hPa | - | - | - | - |
| 1777554108 | 20° C | 31% | 1031.4 hPa | - | - | - | - |
| 1777553208 | 20° C | 31% | 1031.5 hPa | - | - | - | - |
| 1777552308 | 19.44° C | 32% | 1031.4 hPa | - | - | - | - |
| 1777551408 | 19.44° C | 32% | 1031.6 hPa | - | - | - | - |
| 1777550508 | 18.89° C | 31% | 1031.7 hPa | - | - | - | - |
| 1777549608 | 18.89° C | 32% | 1031.8 hPa | - | - | - | - |
| 1777548708 | 19.44° C | 31% | 1031.7 hPa | - | - | - | - |
| 1777547808 | 18.89° C | 32% | 1032 hPa | - | - | - | - |
| 1777546907 | 18.89° C | 32% | 1032 hPa | - | - | - | - |
| 1777546007 | 18.89° C | 31% | 1032 hPa | - | - | - | - |
| 1777545107 | 18.89° C | 32% | 1032.3 hPa | - | - | - | - |
| 1777544205 | 18.89° C | 32% | 1032.3 hPa | - | - | - | - |
| 1777543305 | 18.89° C | 32% | 1032.3 hPa | - | - | - | - |
| 1777542405 | 18.33° C | 32% | 1032.2 hPa | - | - | - | - |
| 1777541505 | 18.33° C | 33% | 1032.5 hPa | - | - | - | - |
| 1777540605 | 18.33° C | 33% | 1032.5 hPa | - | - | - | - |
| 1777539705 | 18.33° C | 33% | 1032.5 hPa | - | - | - | - |
| 1777538805 | 17.78° C | 34% | 1032.6 hPa | - | - | - | - |
| 1777537905 | 17.78° C | 35% | 1032.8 hPa | - | - | - | - |
| 1777537005 | 17.22° C | 36% | 1032.7 hPa | - | - | - | - |
* Rain since midnight (hover to see other rain measurements)
** Current wind speed in m/s (hover to see current wind gust speed)